FENGYUN 1C DEB, 36701

Orbit data source: Space-Track

FENGYUN 1C DEB, 36701 is space debris in SSO originally from a launch on Mon, 10 May 1999 UTC launched from the Taiyaun Space Center, China (TSC). Fengyun 1C debris stems from the Chinese weather satellite Fengyun-1C, which was intentionally destroyed by a Chinese anti-satellite missile in 2007. This event dramatically increased the amount of space debris, with thousands of trackable fragments posing hazards to satellites and human spaceflight. The Fengyun 1C debris cloud has become a focal point in discussions about space sustainability and the need for international regulations to prevent the creation of new debris.

Loading next visibility...
Identifier
36701, 1999-025DZX
Orbit
SSO
Country
Flag of CNCN / PRC
Related business
Manufacturer
Unknown
Mission
Spacecraft
Bus & Motor
Unknown
Mass
Unknown
Launch date (UTC)
1999-05-10 (27 years ago)
Launch vehicle
Unknown
Launch site
Taiyaun Space Center, China (TSC)
Object type
Payload
Rocket body
Debris
Shape & HBR
Unknown shape, 0.1 m
Radar Cross Section
Small (<0.1 m²)

Expand to show TLE details & history
Last TLE update: 3 days ago

TLE from 3 days ago
0 FENGYUN 1C DEB
1 36701U 99025DZX 26235.31978767  .00001094  00000-0  10040-2 0  9999
2 36701 102.7536 277.3767 0256632  36.0151 325.7978 13.72512801646166
Epoch: 2026-08-23T07:40Z
TLE epoch observation values (Epoch: 2026-08-23T07:40:29.654Z)
Latitude
-0.00005°
Longitude
-169.36439°
Altitude
838.415 km
Speed
7.511 km/s
True Right ascension
18h 29m 30s
True Declination
0° 00' 00"
Sunlit
Object was in full shadow at epoch
Visualization orbit readout
Latitude
Unknown
Longitude
Unknown
Altitude
Unknown
Speed
Unknown
Apparent Right ascension
Unknown
Apparent Declination
Unknown
Sunlit
N/A
Visualization observer readout
Local Sidereal Time
04:36:25
Azimuth
Unknown
Elevation
Unknown
Doppler factor
Unknown
Orbital elements
Apogee altitude
1,177.054 km
Perigee altitude
798.976 km
Semi-major axis
7,366.152 km
Eccentricity
0.02566
Inclination
102.7536°
RAAN
277.3767°
Arg. of periapsis
36.0151°
True anomaly
324.09999°
Mean anomaly
325.7978°
Eccentric anomaly
324.95344°
Mean motion
3.43307 °/min
Orbital period
104.86 mins
BSTAR
0.001004
Loading maneuver chart data...
Computing Atmospheric mass density...

Documentation

Showing up to 5 results
|